Lexington Weather

Lexington, Massachusetts, USA

23°F
3/3/2021 2:37am 
  • Lexington Conditions: Few Clouds
  • Temperature: 22.5°F / -5.3°CWarmer 1.5°F than last hour.
  • Dew Point: 9.9°FIncreased 2.6°Fsince last hour.
  • Relative Humidity: 58%Increased 3.0% since last hour.
  • Wind: Wind from WSW WSW 3 mph, 10-min avg: 1 mph, gust: 4 mph
  • Barometer: 29.88 inFalling 0.03  inHg/hr Falling Slowly
  • Visibility: 10 miles
  • Snow Today: 0.0 in
  •   

Regional Weather Roundup
for Boston / Norton, MA

        
000
ASUS41 KBOX 280604
RWRBOX

REGIONAL WEATHER ROUNDUP
NATIONAL WEATHER SERVICE BOSTON/NORTON MA
100 AM EST SUN FEB 28 2021

NOTE:  "FAIR" INDICATES FEW OR NO CLOUDS BELOW 12,000 FEET WITH NO 
SIGNIFICANT WEATHER AND/OR OBSTRUCTIONS TO VISIBILITY.

MAZALL-280700-
EASTERN MASSACHUSETTS
  
CITY           SKY/WX    TMP DP  RH WIND       PRES   REMARKS
BOSTON         MOCLDY    40  32  73 NW13      30.18R                  
6HR MIN TEMP:  39; 6HR MAX TEMP:  42;                                

BEVERLY        PTCLDY    40  33  76 NW8       30.16R                  
LAWRENCE       PTCLDY    38  32  79 W7        30.18R                  
BEDFORD        PTCLDY    37  31  78 NW12      30.17R WCI  29          
BLUE HILL        N/A     37  34  89 NW13G20   30.14R WCI  29          
NORWOOD        MOCLDY    40  32  73 NW7       30.17R                  
MARSHFIELD     MOCLDY    43  36  75 VRB6      30.18R                  
PLYMOUTH       MOCLDY    36  33  89 CALM      30.17R FOG              
TAUNTON        MOCLDY    34  32  92 CALM      30.17R FOG              
NEW BEDFORD    MOCLDY    40  35  83 W5        30.17R                  
$$

MAZALL-280700-
CAPE COD AND THE ISLANDS
  
CITY           SKY/WX    TMP DP  RH WIND       PRES   REMARKS
FALMOUTH       CLEAR     39  37  93 NW3       30.17R                  
HYANNIS        PTCLDY    44  37  76 NW7       30.16R                  
CHATHAM        PTCLDY    43  38  82 NW6       30.18R                  
PROVINCETOWN   PTCLDY    41  36  82 NW13      30.18R                  
NANTUCKET        N/A    N/A N/A N/A MISG      30.17R                  
MARTHAS VNYRD  MOCLDY    36  35  96 CALM      30.18R FOG              
$$
 
MAZALL-280700-
CENTRAL AND WESTERN MASSACHUSETTS
  
CITY           SKY/WX    TMP DP  RH WIND       PRES   REMARKS
WORCESTER      PTCLDY    38  29  70 NW14      30.15R WCI  30          
6HR MIN TEMP:  38; 6HR MAX TEMP:  43;                                

FITCHBURG      PTCLDY    31  30  96 NW8       30.19R WCI  23          
ORANGE         PTCLDY    31  29  92 E3        30.20R                  
SPRINGFIELD    PTCLDY    36  29  74 NW6       30.19R WCI  32          
WESTFIELD      MOCLDY    38  30  73 NW6       30.20R                  
NORTH ADAMS    CLOUDY    38  28  67 W9        30.23R WCI  31          
PITTSFIELD     PTCLDY    35  28  75 MISG      30.20R                  
$$
 
RIZALL-280700-
RHODE ISLAND
  
CITY           SKY/WX    TMP DP  RH WIND       PRES   REMARKS
PROVIDENCE     MOCLDY    42  34  73 NW3       30.19R                  
6HR MIN TEMP:  42; 6HR MAX TEMP:  50;                                

NEWPORT        MOCLDY    41  35  79 NW7       30.18R                  
BLOCK ISLAND   MOCLDY    40  37  89 NW7       30.21R                  
SMITHFIELD     MOCLDY    38  34  85 N6        30.17R                  
WESTERLY       MOCLDY    38  36  92 NW3       30.20R                  
$$
 
CTZALL-280700-
CONNECTICUT
  
CITY           SKY/WX    TMP DP  RH WIND       PRES   REMARKS
BRADLEY INTL   MOCLDY    36  30  79 NW5       30.20R                  
6HR MIN TEMP:  31; 6HR MAX TEMP:  40;                                

HARTFORD       MOCLDY    38  32  79 NE3       30.21R                  
BRIDGEPORT     NOT AVBL                                               
DANBURY        CLOUDY    41  32  70 NW5       30.22R                  
GROTON         MOCLDY    41  34  76 NW5       30.20R                  
NEW HAVEN      CLOUDY    39  37  92 CALM      30.20R                  
CHESTER        FAIR      41  34  75 NW6       30.19R                  
MERIDEN        CLOUDY    40  31  70 NW7       30.21R                  
WILLIMANTIC    MOCLDY    40  31  70 CALM      30.19R                  
OXFORD         CLOUDY    39  33  79 N8        30.20R                  
$$

MEZ002-015-021-024-NHZ003-005-008-011-012-014-VTZ005-008-280700-
NORTHERN NEW ENGLAND
  
CITY           SKY/WX    TMP DP  RH WIND       PRES   REMARKS
PORTLAND ME    CLEAR     38  29  70 W18       30.11R WCI  28          
6HR MIN TEMP:  34; 6HR MAX TEMP:  38;                                

BANGOR ME      CLEAR     36  29  75 W7        30.00R WCI  30          
CONCORD NH     CLEAR     37  29  72 NW8       30.16R WCI  31          
MANCHESTER NH  PTCLDY    37  30  75 NW8       30.15R WCI  31          
NASHUA NH      PTCLDY    29  29 100 CALM      30.19R                  
PORTSMOUTH NH  PTCLDY    38  32  76 W10       30.13R WCI  32          
JAFFREY NH     PTCLDY    30  28  92 CALM      30.17R                  
KEENE NH       PTCLDY    28  28 100 S5        30.21R WCI  23          
BURLINGTON VT  CLOUDY    40  27  59 NW9G17    30.22R                  
MT. WASHINGTON NOT AVBL                                               
$$

NYZ052-076-280700-
EASTERN NEW YORK
  
CITY           SKY/WX    TMP DP  RH WIND       PRES   REMARKS
ALBANY         MOCLDY    37  29  72 VRB5      30.26R                  
6HR MIN TEMP:  37; 6HR MAX TEMP:  44;                                

NEW YORK CITY  MOCLDY    45  35  68 NW7       30.22R                  
6HR MIN TEMP:  45; 6HR MAX TEMP:  48;                                

$$
 
ANZALL-280700-
MARINE OBSERVATIONS
  
STATION/POSITION TIME  TEMP    WIND        PRES    VSBY  WAVE
                       AIR SEA DIR/SP/G                  HT/PER
                 (UTC) (F)     (DEG/KT/KT) (MB)    (MI)  (FT/S)
BOSTON BUOY      0550   41 39  290/ 10/ 14 1022.0R         2/ 7
BUZZARDS BAY     0500          260/ 13/ 14 1022.3R
NANTUCKET SOUND  0550      37  280/  8/  8   N/A           1/ 4
MASS BAY-STELLWA 0504   41     290/ 14/ 16 1019.2R  1 7/8  3/ 8
ISLE OF SHOALS   0500   40     290/ 13/ 14 1019.2R
S OF BLOCK IS    0526      40                N/A           8/ 9
$$

......................KEY.........................
  SKY/WX - SKY CONDITION/PRESENT WEATHER
  TMP    - TEMPERATURE IN FAHRENHEIT
  DWPT   - DEWPOINT IN FAHRENHEIT
  RH     - RELATIVE HUMIDITY IN PERCENT
  WIND   - DIRECTION AND SPEED IN MPH
  PRES   - MEAN SEA LEVEL PRESSURE IN INCHES OF HG
  WCI    - WIND CHILL INDEX
  VSB    - VISIBILITY IN MILES
  HX     - HEAT INDEX
  TC     - TEMPERATURE IN CELSIUS
  VRB    - VARIABLE WIND DIRECTION
  N/A    - NOT AVAILABLE
  
      

Other recent Regional Weather Roundups

Wed Mar 3, 2:04am

Wed Mar 3, 1:04am

Wed Mar 3, 12:04am

Tue Mar 2, 11:04pm

Tue Mar 2, 10:05pm

Tue Mar 2, 9:04pm

Tue Mar 2, 8:04pm

Tue Mar 2, 7:04pm

Tue Mar 2, 6:04pm

Tue Mar 2, 5:04pm

Tue Mar 2, 4:05pm

Tue Mar 2, 3:04pm

Tue Mar 2, 2:04pm

Tue Mar 2, 1:04pm

Tue Mar 2, 12:04pm

Tue Mar 2, 11:04am

Tue Mar 2, 10:05am

Tue Mar 2, 9:04am

Tue Mar 2, 8:04am

Tue Mar 2, 7:04am

Tue Mar 2, 6:05am

Tue Mar 2, 5:04am

Tue Mar 2, 4:04am

Tue Mar 2, 3:04am

Tue Mar 2, 2:04am

Tue Mar 2, 1:04am

Tue Mar 2, 12:04am

Mon Mar 1, 11:04pm

Mon Mar 1, 10:04pm

Mon Mar 1, 9:04pm

Mon Mar 1, 8:04pm

Mon Mar 1, 7:04pm

Mon Mar 1, 6:04pm

Mon Mar 1, 5:04pm

Mon Mar 1, 4:05pm

Mon Mar 1, 3:05pm

Mon Mar 1, 2:04pm

Mon Mar 1, 1:04pm

Mon Mar 1, 12:04pm

Mon Mar 1, 11:04am

Mon Mar 1, 10:04am

Mon Mar 1, 9:04am

Mon Mar 1, 8:05am

Mon Mar 1, 7:04am

Mon Mar 1, 6:04am

Mon Mar 1, 5:04am

Mon Mar 1, 4:05am

Mon Mar 1, 3:04am

Mon Mar 1, 2:04am

Mon Mar 1, 1:04am

Mon Mar 1, 12:05am

Sun Feb 28, 11:04pm

Sun Feb 28, 10:04pm

Sun Feb 28, 9:04pm

Sun Feb 28, 8:04pm

Sun Feb 28, 7:04pm

Sun Feb 28, 6:05pm

Sun Feb 28, 5:04pm

Sun Feb 28, 4:05pm

Sun Feb 28, 3:04pm

Sun Feb 28, 2:04pm

Sun Feb 28, 1:04pm

Sun Feb 28, 12:04pm

Sun Feb 28, 11:04am

Sun Feb 28, 10:04am

Sun Feb 28, 9:04am

Sun Feb 28, 8:04am

Sun Feb 28, 7:04am

Sun Feb 28, 6:04am

Sun Feb 28, 5:04am

Sun Feb 28, 4:04am

Sun Feb 28, 3:04am

Sun Feb 28, 2:04am

Sun Feb 28, 12:04am

Sat Feb 27, 11:04pm

Sat Feb 27, 10:04pm

Sat Feb 27, 9:04pm

Sat Feb 27, 8:04pm

Sat Feb 27, 7:04pm

Sat Feb 27, 6:04pm

Sat Feb 27, 5:04pm

Sat Feb 27, 4:04pm

Sat Feb 27, 3:05pm

Sat Feb 27, 2:05pm

Sat Feb 27, 1:04pm

Sat Feb 27, 12:04pm

Sat Feb 27, 11:04am

Sat Feb 27, 10:04am

Sat Feb 27, 9:05am

Sat Feb 27, 8:04am

Sat Feb 27, 7:04am

Sat Feb 27, 6:04am

Sat Feb 27, 5:04am

Sat Feb 27, 4:04am

Sat Feb 27, 3:04am

Sat Feb 27, 2:04am

Sat Feb 27, 1:04am

Sat Feb 27, 12:04am

Fri Feb 26, 11:04pm

Fri Feb 26, 10:04pm

Fri Feb 26, 9:04pm

Fri Feb 26, 8:04pm

Fri Feb 26, 7:04pm

Fri Feb 26, 6:04pm

Fri Feb 26, 5:04pm

Fri Feb 26, 4:04pm

Fri Feb 26, 3:04pm

Fri Feb 26, 2:04pm

Fri Feb 26, 1:04pm

Fri Feb 26, 12:04pm

Fri Feb 26, 11:04am

Fri Feb 26, 10:04am

Fri Feb 26, 9:04am

Fri Feb 26, 8:04am

Fri Feb 26, 7:04am

Fri Feb 26, 6:04am

Fri Feb 26, 5:04am

Fri Feb 26, 4:04am

Fri Feb 26, 3:04am

Fri Feb 26, 2:04am

Fri Feb 26, 1:04am

Fri Feb 26, 12:04am

Thu Feb 25, 11:04pm

Thu Feb 25, 10:04pm

Thu Feb 25, 9:04pm

Thu Feb 25, 8:05pm

Thu Feb 25, 7:05pm

Thu Feb 25, 6:04pm

Thu Feb 25, 5:04pm

Thu Feb 25, 4:05pm

Thu Feb 25, 3:05pm

Thu Feb 25, 2:04pm

Thu Feb 25, 1:04pm

Thu Feb 25, 12:05pm

Thu Feb 25, 11:04am

Thu Feb 25, 10:04am

Thu Feb 25, 9:04am

Thu Feb 25, 8:04am

Thu Feb 25, 7:04am

Thu Feb 25, 6:04am

Thu Feb 25, 5:04am

Thu Feb 25, 4:04am

Thu Feb 25, 3:04am

Thu Feb 25, 2:04am

Thu Feb 25, 1:04am

Thu Feb 25, 12:04am

Wed Feb 24, 11:04pm

Wed Feb 24, 10:05pm

Wed Feb 24, 9:04pm

Wed Feb 24, 8:04pm

Wed Feb 24, 7:04pm

Wed Feb 24, 6:04pm

Wed Feb 24, 5:04pm

Wed Feb 24, 4:04pm

Wed Feb 24, 3:04pm

Wed Feb 24, 2:05pm

Wed Feb 24, 1:05pm

Wed Feb 24, 12:05pm

Wed Feb 24, 11:04am

Wed Feb 24, 10:04am

Wed Feb 24, 9:04am

Wed Feb 24, 8:04am

Wed Feb 24, 7:04am

Wed Feb 24, 6:04am

Wed Feb 24, 5:04am

Wed Feb 24, 4:04am

Wed Feb 24, 3:04am

Meta data:

ID: 698db40c-7090-4676-b06f-d67ffbe89994
Link: https://api.weather.gov/products/698db40c-7090-4676-b06f-d67ffbe89994